humankinetics.com alexa rank chart, humankinetics.com alexa rank daily changes

humankinetics.com alexa rank chart, humankinetics.com alexa rank daily changes

humankinetics.com
Actual rank:
33 797

RANK HISTORY

Date Rank Diff
2017/12/09 33 797 +202
2017/12/08 33 595 +198
2017/12/07 33 397 -219
2017/12/06 33 616 -685
2017/12/05 34 301 +385
2017/12/04 33 916 +201
2017/12/03 33 715 +330
2017/12/02 33 385 +320
2017/12/01 33 065 +530
2017/11/30 32 535 +230
2017/11/29 32 305 +161
2017/11/28 32 144 +177
2017/11/27 31 967 +571
2017/11/26 31 396 +180
2017/11/25 31 216 +378
2017/11/24 30 838 +194
2017/11/23 30 644 -214
2017/11/22 30 858 -10
2017/11/21 30 868 +8
2017/11/20 30 860 +700
2017/11/19 30 160 +469
2017/11/18 29 691 +31
2017/11/17 29 660 -249
2017/11/16 29 909 -212
2017/11/15 30 121 -227
2017/11/14 30 348 +186
2017/11/13 30 162 +93
2017/11/12 30 069 +400
2017/11/11 29 669 +82
2017/11/10 29 587 -312
2017/11/09 29 899 -133
2017/11/08 30 032 -262
2017/11/07 30 294 -21
2017/11/06 30 315 +198
2017/11/05 30 117 -189
2017/11/04 30 306 +228
2017/11/03 30 078 -261
2017/11/02 30 339 -330
2017/11/01 30 669 -61
2017/10/31 30 730 -596
2017/10/30 31 326 -212
2017/10/29 31 538 -245
2017/10/28 31 783 +138
2017/10/27 31 645 -569
2017/10/26 32 214 -56
2017/10/25 32 270 -497
2017/10/24 32 767 -133
2017/10/23 32 900 +268
2017/10/22 32 632 -5
2017/10/21 32 637 -167
2017/10/20 32 804 -502
2017/10/19 33 306 +194
2017/10/18 33 112 -233
2017/10/17 33 345 -99
2017/10/16 33 444 +90
2017/10/14 33 354 -326
2017/10/13 33 680 +90
2017/10/12 33 590 -9
2017/10/11 33 599 -480
2017/10/10 34 079

WIDGET FOR YOUR SITE

DOMAINS WITH THE NEAREST RANK

Domain Rank
alyaum.com 33 792
x4jdm.com 33 793
tsf.pt 33 794
edelkrone.com 33 795
xyzimage.net 33 796
humankinetics.com 33 797
sosaw.com 33 798
codexworld.com 33 799
kazedu.kz 33 800
modapkdown.com 33 801
phillyvoice.com 33 802

DOMAINS WITH THE NEAREST RANK BY TLD .com

Domain Rank
mytrip.com 33 787
jogalo.com 33 791
alyaum.com 33 792
x4jdm.com 33 793
edelkrone.com 33 795
humankinetics.com 33 797
sosaw.com 33 798
codexworld.com 33 799
modapkdown.com 33 801
phillyvoice.com 33 802
eni.com 33 803